Truckee-Tahoe, CA

8:04 PM PDT on September 18, 2019 (GMT -0700)
Truckee-Tahoe

Weather History for KTRK - August, 2019

Change the Weather History Date:

Friday, August 23, 2019

  Actual Average Record
Temperature  
Mean Temperature 62 °F -  
Max Temperature 84 °F 78 °F 90 °F (1967)
Min Temperature 41 °F 39 °F 26 °F (1960)
Degree Days  
Heating Degree Days 2    
Growing Degree Days 12 (Base 50)    
Moisture  
Dew Point 45 °F    
Average Humidity 64    
Maximum Humidity 100    
Minimum Humidity 20    
Precipitation  
Precipitation 0.00 in - - ()
Sea Level Pressure  
Sea Level Pressure 30.10 in    
Wind  
Wind Speed 2 mph (WSW)    
Max Wind Speed 14 mph    
Max Gust Speed 21 mph    
Visibility 10 miles    
Events      
Averages and records for this station are not official NWS values.
T = Trace of Precipitation, MM = Missing Value Source: NWS Daily Summary

Daily Weather History Graph

Daily Weather History Graph

Search for Another Location

Airport or City:

Astronomy

Aug. 23, 2019 Rise Set
Actual Time 6:20 AM PDT 7:45 PM PDT
Civil Twilight 5:52 AM PDT 8:13 PM PDT
Nautical Twilight 5:18 AM PDT 8:46 PM PDT
Astronomical Twilight 4:43 AM PDT 9:21 PM PDT
Moon No Moon Rise 2:00 PM PDT (8/23)
Length of Visible Light 14h 20m
Length of Day
13h 24m
Waning Gibbous, 48% of the Moon is Illuminated
Aug 23
Waning Gibbous
Aug 30
New
Sep 5
First Quarter
Sep 13
Full
Sep 21
Last Quarter

Hourly Weather History & Observations

Time (PDT) Temp. Windchill Dew Point Humidity Pressure Visibility Wind Dir Wind Speed Gust Speed Precip Events Conditions
12:15 AM 53.6 °F - 44.6 °F 72% 30.09 in 10.0 mi Calm Calm - N/A   Clear
12:35 AM 53.6 °F - 44.6 °F 72% 30.10 in 10.0 mi Calm Calm - N/A   Clear
12:55 AM 51.8 °F - 41.0 °F 67% 30.10 in 10.0 mi Calm Calm - N/A   Clear
1:15 AM 48.2 °F - 39.2 °F 71% 30.09 in 10.0 mi Calm Calm - N/A   Clear
1:35 AM 50.0 °F - 41.0 °F 71% 30.08 in 10.0 mi Calm Calm - N/A   Clear
1:55 AM 48.2 °F - 41.0 °F 76% 30.08 in 10.0 mi Calm Calm - N/A   Clear
2:15 AM 50.0 °F - 42.8 °F 76% 30.08 in 10.0 mi Calm Calm - N/A   Clear
2:35 AM 46.4 °F 45.2 °F 41.0 °F 81% 30.08 in 10.0 mi SE 3.5 mph - N/A   Clear
2:55 AM 46.4 °F - 42.8 °F 87% 30.08 in 10.0 mi Calm Calm - N/A   Clear
3:15 AM 44.6 °F - 41.0 °F 87% 30.08 in 10.0 mi Calm Calm - N/A   Clear
3:35 AM 46.4 °F - 42.8 °F 87% 30.08 in 10.0 mi Calm Calm - N/A   Clear
3:55 AM 46.4 °F - 42.8 °F 87% 30.09 in 10.0 mi Calm Calm - N/A   Clear
4:15 AM 44.6 °F - 42.8 °F 93% 30.09 in 10.0 mi Calm Calm - N/A   Clear
4:35 AM 44.6 °F - 42.8 °F 93% 30.09 in 10.0 mi Calm Calm - N/A   Clear
4:55 AM 42.8 °F - 41.0 °F 93% 30.09 in 10.0 mi Calm Calm - N/A   Clear
5:15 AM 42.8 °F - 42.8 °F 100% 30.09 in 10.0 mi Calm Calm - N/A   Clear
5:35 AM 42.8 °F - 41.0 °F 93% 30.09 in 10.0 mi Calm Calm - N/A   Clear
5:55 AM 44.6 °F - 42.8 °F 93% 30.10 in 10.0 mi Calm Calm - N/A   Clear
6:15 AM 42.8 °F - 41.0 °F 93% 30.10 in 10.0 mi Calm Calm - N/A   Clear
6:35 AM 41.0 °F - 41.0 °F 100% 30.11 in 1.0 mi Calm Calm - N/A   Mist
11:45 AM 75.2 °F - 39.2 °F 27% 30.11 in 10.0 mi NE 4.6 mph - N/A   Clear
12:55 PM 84.2 °F - 39.2 °F 20% 30.09 in 10.0 mi SSE 8.1 mph - N/A   Clear
1:45 PM 82.4 °F - 41.0 °F 23% 30.08 in 10.0 mi Calm Calm - N/A   Clear
2:45 PM 84.2 °F - 48.2 °F 29% 30.07 in 10.0 mi West 6.9 mph 20.7 mph N/A   Clear
3:45 PM 84.2 °F - 48.2 °F 29% 30.07 in 10.0 mi West 12.7 mph 19.6 mph N/A   Clear
4:45 PM 84.2 °F - 46.4 °F 27% 30.07 in 10.0 mi West 11.5 mph 16.1 mph N/A   Clear
5:45 PM 80.6 °F - 48.2 °F 32% 30.08 in 10.0 mi West 12.7 mph - N/A   Clear
6:15 PM 78.8 °F - 50.0 °F 36% 30.08 in 10.0 mi West 11.5 mph - N/A   Clear
6:35 PM 78.8 °F - 50.0 °F 36% 30.08 in 10.0 mi West 13.8 mph - N/A   Clear
6:55 PM 77.0 °F - 50.0 °F 39% 30.09 in 10.0 mi West 10.4 mph - N/A   Clear
7:15 PM 75.2 °F - 50.0 °F 41% 30.10 in 10.0 mi West 10.4 mph - N/A   Clear
7:35 PM 73.4 °F - 50.0 °F 44% 30.10 in 10.0 mi West 10.4 mph - N/A   Clear
7:55 PM 71.6 °F - 50.0 °F 46% 30.11 in 10.0 mi West 9.2 mph - N/A   Clear
8:15 PM 71.6 °F - 50.0 °F 46% 30.12 in 10.0 mi West 9.2 mph - N/A   Clear
8:35 PM 69.8 °F - 50.0 °F 49% 30.13 in 10.0 mi West 6.9 mph - N/A   Clear
8:55 PM 64.4 °F - 48.2 °F 56% 30.14 in 10.0 mi SSE 4.6 mph - N/A   Clear
9:15 PM 62.6 °F - 50.0 °F 63% 30.14 in 10.0 mi Calm Calm - N/A   Clear
9:35 PM 60.8 °F - 50.0 °F 68% 30.15 in 10.0 mi Calm Calm - N/A   Clear
10:15 PM 60.8 °F - 50.0 °F 68% 30.16 in 10.0 mi Calm Calm - N/A   Clear
10:35 PM 60.8 °F - 50.0 °F 68% 30.16 in 10.0 mi Calm Calm - N/A   Clear
10:55 PM 59.0 °F - 50.0 °F 72% 30.16 in 10.0 mi Calm Calm - N/A   Clear
11:15 PM 59.0 °F - 50.0 °F 72% 30.16 in 10.0 mi SW 3.5 mph - N/A   Clear
11:35 PM 57.2 °F - 50.0 °F 77% 30.17 in 10.0 mi Calm Calm - N/A   Clear
11:55 PM 57.2 °F - 50.0 °F 77% 30.16 in 10.0 mi Calm Calm - N/A   Clear